OE7SBH-WX Weather Reports


Display with metric or nautical units.
time (UTC)temp
F
wind
direction
speed
MPH
gust
MPH
rain 1hr
in
rain 24hr
in
rain mn
in
humidity
%
barometer
mb
20260902002518 57 1 0.0 1.0 0.00 0.00 0.00 90 1028.7
20260902001528 58 344 0.0 1.0 0.00 0.00 0.00 89 1028.6
20260902000518 58 329 0.0 1.0 0.00 0.00 0.00 88 1028.6
20260901235528 59 329 0.0 1.0 0.00 0.00 0.00 86 1028.6
20260901234518 59 331 1.0 2.0 0.00 0.00 0.00 87 1028.6
20260901233528 59 313 1.0 2.0 0.00 0.00 0.00 88 1028.6
20260901232518 59 0.0 0.0 0.00 0.00 0.00 87 1028.7
20260901231520 59 312 0.0 1.0 0.00 0.00 0.00 86 1028.6
20260901230517 60 313 0.0 1.0 0.00 0.00 0.00 86 1028.6
20260901225528 60 0.0 0.0 0.00 0.00 0.00 85 1028.4
20260901224518 60 315 1.0 2.0 0.00 0.00 0.00 85 1028.4
20260901223528 60 336 1.0 2.0 0.00 0.00 0.00 87 1028.3
20260901222518 61 294 0.0 1.0 0.00 0.00 0.00 84 1028.3
20260901221548 61 295 0.0 1.0 0.00 0.00 0.00 84 1028.3
20260901220518 62 294 0.0 1.0 0.00 0.00 0.00 83 1028.4
20260901215532 61 315 1.0 1.0 0.00 0.00 0.00 83 1028.4
20260901214518 62 293 0.0 1.0 0.00 0.00 0.00 81 1028.4
20260901213528 63 293 1.0 2.0 0.00 0.00 0.00 78 1028.3
20260901212538 63 293 1.0 2.0 0.00 0.00 0.00 79 1028.2
20260901211528 63 358 2.0 6.0 0.00 0.00 0.00 79 1028.1
20260901210517 64 301 1.0 2.0 0.00 0.00 0.00 76 1028.2
20260901205528 63 308 2.0 2.0 0.00 0.00 0.00 78 1028.1
20260901204518 64 325 0.0 2.0 0.00 0.00 0.00 77 1028.3
20260901203528 64 325 1.0 2.0 0.00 0.00 0.00 79 1028.2
20260901202538 66 325 0.0 1.0 0.00 0.00 0.00 77 1028.0
20260901201528 66 0.0 0.0 0.00 0.00 0.00 76 1028.1
20260901200517 66 325 0.0 1.0 0.00 0.00 0.00 75 1028.2
20260901195528 67 326 0.0 2.0 0.00 0.00 0.00 75 1027.9
20260901194518 68 326 0.0 1.0 0.00 0.00 0.00 73 1027.8
20260901193528 68 326 0.0 1.0 0.00 0.00 0.00 71 1027.8
20260901192518 69 0.0 0.0 0.00 0.00 0.00 69 1027.8
20260901191528 69 0.0 0.0 0.00 0.00 0.00 69 1027.7
20260901190517 69 325 0.0 1.0 0.00 0.00 0.00 67 1027.7
20260901185527 69 302 0.0 2.0 0.00 0.00 0.00 67 1027.5
20260901184518 69 322 2.0 3.0 0.00 0.00 0.00 65 1027.3
20260901183528 70 331 1.0 2.0 0.00 0.00 0.00 64 1027.1
20260901182538 70 330 2.0 4.0 0.00 0.00 0.00 64 1027.1
20260901181528 71 341 1.0 2.0 0.00 0.00 0.00 62 1026.9
20260901180518 71 341 1.0 2.0 0.00 0.00 0.00 61 1026.8
20260901175528 71 334 2.0 3.0 0.00 0.01 0.00 60 1026.7
20260901174518 71 335 2.0 3.0 0.00 0.03 0.00 60 1026.6
20260901173528 71 326 2.0 4.0 0.00 0.03 0.00 60 1026.6
20260901172518 72 335 2.0 3.0 0.00 0.03 0.00 60 1026.7
20260901171528 72 347 1.0 3.0 0.00 0.03 0.00 60 1026.5
20260901170518 72 338 1.0 4.0 0.00 0.03 0.00 59 1026.4
20260901165548 73 338 2.0 8.0 0.00 0.03 0.00 57 1026.3
20260901164518 73 330 3.0 6.0 0.00 0.03 0.00 56 1026.4
20260901163528 73 332 2.0 6.0 0.00 0.04 0.00 56 1026.3
20260901162518 73 328 4.0 7.0 0.00 0.05 0.00 56 1026.2
20260901161528 74 325 4.0 7.0 0.00 0.06 0.00 56 1026.2
20260901160518 74 327 6.0 10.0 0.00 0.06 0.00 56 1026.1
20260901155548 74 323 5.0 9.0 0.00 0.06 0.00 55 1026.2
20260901154518 74 329 6.0 11.0 0.00 0.06 0.00 54 1026.0
20260901153546 74 329 8.0 15.0 0.00 0.06 0.00 54 1026.1
20260901152520 75 316 8.0 14.0 0.00 0.06 0.00 54 1025.9
20260901151528 75 322 7.0 14.0 0.00 0.09 0.00 54 1025.9
20260901150550 74 323 7.0 11.0 0.00 0.11 0.00 55 1025.9
20260901145536 74 325 8.0 14.0 0.00 0.11 0.00 55 1026.0
20260901144520 74 321 10.0 17.0 0.00 0.11 0.00 55 1025.9
20260901143526 75 321 7.0 14.0 0.00 0.11 0.00 54 1025.9
20260901142520 76 329 11.0 19.0 0.00 0.11 0.00 52 1025.9
20260901141526 76 327 10.0 21.0 0.00 0.11 0.00 52 1025.9
20260901140522 76 320 11.0 23.0 0.00 0.11 0.00 53 1025.8
20260901135524 77 331 8.0 14.0 0.00 0.11 0.00 52 1025.8
20260901134517 76 335 8.0 13.0 0.00 0.11 0.00 52 1025.7
20260901133527 76 328 9.0 15.0 0.00 0.11 0.00 52 1025.8
20260901132518 76 335 9.0 14.0 0.00 0.11 0.00 52 1026.0
20260901131528 76 323 9.0 14.0 0.00 0.11 0.00 52 1026.2
20260901130538 76 327 10.0 17.0 0.00 0.11 0.00 51 1026.2
20260901125528 77 341 10.0 17.0 0.00 0.11 0.00 50 1026.3
20260901124518 77 324 8.0 13.0 0.00 0.11 0.00 50 1026.3
20260901123528 76 324 9.0 16.0 0.00 0.11 0.00 49 1026.3
20260901122519 76 334 8.0 14.0 0.00 0.11 0.00 50 1026.3
20260901121528 76 327 7.0 13.0 0.00 0.11 0.00 51 1026.4
20260901120538 76 330 4.0 8.0 0.00 0.11 0.00 54 1026.5
20260901115546 75 330 4.0 9.0 0.00 0.11 0.00 56 1026.5
20260901114520 75 335 5.0 10.0 0.00 0.11 0.00 55 1026.6
20260901113528 75 329 5.0 9.0 0.00 0.11 0.00 57 1026.7
20260901112520 74 330 4.0 8.0 0.00 0.11 0.00 58 1026.9
20260901111529 73 339 4.0 11.0 0.00 0.11 0.00 60 1027.1
20260901110520 72 325 5.0 10.0 0.00 0.11 0.00 60 1027.2
20260901105526 73 340 3.0 9.0 0.00 0.11 0.00 60 1027.2
20260901104520 72 359 3.0 7.0 0.00 0.11 0.00 62 1027.4
20260901103531 72 331 2.0 7.0 0.00 0.11 0.00 65 1027.6
20260901102521 70 323 5.0 9.0 0.00 0.11 0.00 67 1027.7
20260901101529 70 338 4.0 8.0 0.00 0.11 0.00 64 1027.7
20260901100521 69 335 2.0 6.0 0.00 0.11 0.00 69 1027.9
20260901095548 70 29 2.0 3.0 0.00 0.11 0.00 69 1028.1
20260901094520 68 11 2.0 7.0 0.00 0.11 0.00 71 1028.2
20260901093553 68 332 3.0 6.0 0.00 0.11 0.00 70 1028.2
20260901092518 68 17 1.0 6.0 0.00 0.11 0.00 71 1028.4
20260901091528 68 332 1.0 3.0 0.00 0.11 0.00 70 1028.5
20260901090518 67 351 1.0 2.0 0.00 0.11 0.00 72 1028.7
20260901085528 65 331 2.0 3.0 0.00 0.11 0.00 79 1028.7
20260901084518 65 53 1.0 2.0 0.00 0.11 0.00 80 1028.7
20260901083549 65 48 2.0 4.0 0.00 0.11 0.00 81 1028.7
20260901082519 64 9 2.0 4.0 0.00 0.11 0.00 81 1028.9
20260901081529 64 55 2.0 7.0 0.00 0.11 0.00 82 1029.0
20260901080518 62 334 2.0 4.0 0.00 0.11 0.00 86 1029.1
20260901075528 61 1 2.0 4.0 0.00 0.11 0.00 89 1029.2
20260901074518 62 340 3.0 7.0 0.00 0.11 0.00 89 1029.2
20260901073529 62 29 2.0 6.0 0.00 0.11 0.00 88 1029.1
20260901072518 61 332 2.0 4.0 0.00 0.11 0.00 90 1029.3
20260901071529 60 321 2.0 2.0 0.00 0.11 0.00 93 1029.4
20260901070518 59 336 2.0 3.0 0.00 0.11 0.00 93 1029.3
20260901065528 59 7 1.0 4.0 0.00 0.11 0.00 95 1029.5
20260901064518 58 332 1.0 2.0 0.00 0.11 0.00 95 1029.6
20260901063528 58 1 1.0 3.0 0.00 0.11 0.00 96 1029.6
20260901062519 58 331 2.0 3.0 0.00 0.11 0.00 96 1029.6
20260901061529 58 312 1.0 2.0 0.00 0.11 0.00 97 1029.5
20260901060518 57 338 1.0 3.0 0.00 0.11 0.00 98 1029.5
20260901055528 57 358 0.0 2.0 0.00 0.11 0.00 98 1029.6
20260901054518 57 13 0.0 1.0 0.00 0.11 0.00 98 1029.5
20260901053528 57 354 0.0 1.0 0.00 0.12 0.00 98 1029.4
20260901052518 57 52 1.0 2.0 0.00 0.12 0.00 98 1029.4
20260901051529 57 47 0.0 1.0 0.00 0.14 0.00 98 1029.1
20260901050538 57 47 0.0 1.0 0.00 0.14 0.00 98 1029.1
20260901045528 56 26 0.0 1.0 0.00 0.14 0.00 98 1029.1
20260901044532 57 62 1.0 2.0 0.00 0.14 0.00 98 1029.1
20260901043526 57 176 1.0 2.0 0.00 0.14 0.00 98 1029.1
20260901042541 57 166 1.0 2.0 0.00 0.14 0.00 98 1029.1
20260901041529 57 45 1.0 2.0 0.00 0.14 0.00 98 1029.2
20260901040540 57 191 1.0 2.0 0.00 0.14 0.00 98 1029.1
20260901035526 57 155 1.0 2.0 0.00 0.14 0.00 98 1029.1
20260901034520 57 4 0.0 1.0 0.00 0.14 0.00 97 1029.1
20260901033546 57 334 1.0 2.0 0.00 0.14 0.00 97 1029.0
20260901032520 58 175 1.0 2.0 0.00 0.14 0.00 98 1029.0
20260901031529 58 144 1.0 2.0 0.00 0.14 0.00 97 1029.1
20260901030524 58 47 1.0 2.0 0.00 0.16 0.00 96 1029.0
20260901025528 58 0.0 0.0 0.00 0.22 0.00 96 1029.1
20260901024522 58 335 0.0 1.0 0.00 0.22 0.00 95 1029.0
20260901023524 59 333 1.0 1.0 0.00 0.22 0.00 95 1029.0
20260901022520 59 359 1.0 1.0 0.00 0.22 0.00 95 1029.0
20260901021528 59 24 1.0 1.0 0.00 0.22 0.00 96 1029.0
20260901020521 59 20 0.0 1.0 0.00 0.22 0.00 96 1029.1
20260901015528 59 18 0.0 1.0 0.00 0.22 0.00 96 1028.9
20260901014520 59 18 0.0 1.0 0.00 0.22 0.00 96 1028.8
20260901013528 59 16 0.0 1.0 0.00 0.22 0.00 97 1029.0
20260901012520 59 16 1.0 2.0 0.00 0.22 0.00 98 1028.9
20260901011528 60 0.0 0.0 0.00 0.22 0.00 99 1028.9
20260901010520 60 0.0 0.0 0.00 0.22 0.00 99 1028.9
20260901005528 60 137 0.0 2.0 0.00 0.22 0.00 99 1028.8
20260901004521 60 223 1.0 2.0 0.00 0.22 0.00 99 1028.7
20260901003528 60 59 1.0 2.0 0.00 0.22 0.00 98 1028.6